CAPE
0 0 11 12 7 8 12 9 25 13 13 9 24 5 11 38 15 24 12 36 15 24 22 22 19 19 21 19 29 20 23 18 18 6 23 18 60 8 14 24 4 0 17
0 0 11 9 7 9 32 4 21 5 13 7 21 23 10 9 15 25 14 12 15 10 20 18 11 11 14 19 33 24 27 28 24 16 17 4 42 59 24 14 5 2 12
0 0 1 11 12 6 4 6 11 20 2 10 11 12 21 25 8 14 15 10 20 19 14 12 11 3 12 19 24 17 30 24 49 28 23 0 0 28 32 34 12 25 8
0 0 0 9 10 5 11 6 8 3 7 8 11 5 12 8 6 10 8 7 12 14 11 5 4 2 16 15 17 18 21 18 20 8 0 0 6 19 11 11 19 35 50
0 0 0 11 6 5 11 6 7 5 7 5 8 9 9 10 4 10 14 14 11 17 11 5 1 5 12 13 15 17 11 1 0 0 0 0 0 56 32 11 6 9 13
0 0 0 8 8 3 5 5 8 3 5 5 6 10 9 8 12 15 9 10 12 5 10 2 0 0 3 6 7 8 1 0 0 0 0 0 0 11 22 44 31 7 17
0 0 0 8 9 6 8 7 6 4 5 4 3 3 2 3 5 7 7 8 9 5 1 3 0 0 0 0 0 0 0 0 0 0 0 0 0 17 22 18 11 50 27
0 0 0 4 11 8 6 7 5 5 3 2 0 0 0 0 0 1 0 0 0 0 0 0 0 0 0 0 0 0 0 0 0 0 0 0 6 11 10 13 10 7 29
0 0 0 0 2 9 8 2 5 2 3 1 0 0 0 0 0 0 0 0 0 0 0 0 0 0 0 0 0 0 0 0 0 0 0 0 10 10 9 7 8 10 9
0 0 0 0 0 0 0 1 0 0 0 0 0 0 0 0 0 0 0 0 0 0 0 0 0 0 0 0 0 0 0 0 0 0 0 0 0 1 7 3 1 7 7
0 0 0 0 0 0 0 0 0 0 0 0 0 0 0 0 0 0 0 0 0 0 0 0 0 0 0 0 0 0 0 0 0 0 0 0 0 0 0 2 1 3 4
0 0 0 0 0 0 0 0 0 0 0 0 0 0 0 0 0 0 0 0 0 0 0 0 0 0 0 0 0 0 0 0 0 0 0 0 0 0 0 0 0 1 3
0 0 0 0 0 0 0 0 0 0 0 0 0 0 0 0 0 0 0 0 0 0 0 0 0 0 0 0 0 0 0 0 0 0 0 0 0 0 0 0 0 0 1
0 0 0 0 0 0 0 0 0 0 0 0 0 0 0 0 0 0 0 0 0 0 0 0 0 0 0 0 0 0 0 0 0 0 0 0 0 0 0 0 0 0 0
0 0 0 0 0 0 0 0 0 0 0 0 0 0 0 0 0 0 0 0 0 0 0 0 0 0 0 0 0 0 0 0 0 0 0 0 0 0 0 0 0 0 0
0 0 0 0 0 0 0 0 0 0 0 0 0 0 0 0 0 0 0 0 0 0 0 0 0 0 0 0 0 0 0 0 0 0 0 0 0 0 0 0 0 0 0
0 0 0 0 0 0 0 0 0 0 0 0 0 0 0 0 0 0 0 0 0 0 0 0 0 0 0 0 0 0 0 0 0 0 0 0 0 0 0 0 0 0 0
0 0 0 0 0 0 0 0 0 0 0 0 0 0 0 0 0 0 0 0 0 0 0 0 0 0 0 0 0 0 0 0 0 0 0 0 0 0 0 0 0 0 0
0 0 0 0 0 0 0 0 0 0 0 0 0 0 0 0 0 0 0 0 0 0 0 0 0 0 0 0 0 0 0 0 0 0 0 0 0 0 0 0 0 0 0
0 0 0 0 0 0 0 0 0 0 0 0 0 0 0 0 0 0 0 0 0 0 0 0 0 0 0 0 0 0 0 0 0 0 0 0 0 0 0 0 0 0 0
0 0 0 0 0 0 0 0 0 0 0 0 0 0 0 0 0 0 0 0 0 0 0 0 0 0 0 0 0 0 0 0 0 0 0 0 0 0 0 0 0 0 0
0 0 0 0 0 0 0 0 0 0 0 0 0 0 0 0 0 0 0 0 0 0 0 0 0 0 0 0 0 0 0 0 0 0 0 0 0 0 0 0 0 0 0
0 0 0 0 0 0 0 0 0 0 0 0 0 0 0 0 0 0 0 0 0 0 0 0 0 0 0 0 0 0 0 0 0 0 0 0 0 0 0 0 0 0 0
0 0 0 0 0 0 0 0 0 0 0 0 0 0 0 0 0 0 0 0 0 0 0 0 0 0 0 0 0 0 0 0 0 0 0 0 0 0 0 0 0 0 0
0 0 0 0 0 0 0 0 0 0 0 0 0 0 0 0 0 0 0 0 0 0 0 0 0 0 0 0 0 0 0 0 0 0 0 0 0 0 0 0 0 0 0
0 0 0 0 0 0 0 0 0 0 0 0 0 0 0 0 0 0 0 0 0 0 0 0 0 0 0 0 0 0 0 0 0 0 0 0 0 0 0 0 0 0 0
CIN
-0 -0 -0 -0 -0 -0 -4 -0 -3 -2 -0 -0 -0 -1 -0 -1 -1 -0 -1 -0 -1 -0 -0 -0 -0 -0 -0 -0 -0 -0 -0 -0 -0 -0 -5 -11 -0 -0 -0 -0 -1 -0 -0
-0 -0 -0 -0 -0 -0 -4 -0 -1 -1 -2 -0 -1 -2 -0 -0 -0 -0 -0 -0 -0 -0 -0 -0 -0 -0 -0 -0 -0 -0 -0 -0 -0 -0 -6 -27 -1 -0 -0 -0 -0 -0 -0
-0 -0 -1 -0 -0 -0 -0 -0 -0 -2 -0 -0 -1 -0 -1 -1 -0 -0 -0 -0 -0 -0 -0 -0 -0 -0 -0 -0 -0 -0 -0 -0 -1 -8 -17 -0 -1 -0 -0 -0 -0 -0 -0
-0 -0 -0 -0 -0 -0 -0 -0 -0 -0 -0 -1 -0 -0 -0 -0 -0 -0 -0 -0 -0 -0 -0 -0 -0 -0 -0 -0 -0 -0 -0 -0 -5 -19 -0 -0 -20 -0 -0 -0 -0 -1 -0
-0 -0 -0 -0 -0 -0 -0 -0 -0 -0 -1 -0 -0 -0 -0 -0 -1 -0 -0 -0 -0 -0 -0 -0 -0 -0 -0 -0 -0 -0 -0 -0 -0 -0 -0 -8 -0 -0 -0 -0 -0 -0 -0
-0 -0 -0 -0 -0 -0 -0 -0 -0 -0 -0 -0 -0 -0 -0 -0 -0 -0 -0 -0 -0 -0 -0 -0 -0 -0 -0 -0 -0 -0 -0 -0 -0 -0 -0 -0 -0 -0 -0 -0 -0 -0 -0
-0 -0 -0 -0 -0 -0 -0 -0 -0 -0 -0 -0 -0 -0 -0 -0 -0 -0 -0 -0 -0 -0 -0 -0 -0 -0 -0 -0 -0 -0 -0 -0 -0 -0 -0 -0 -0 -0 -0 -0 -0 -0 -0
-0 -0 -0 -1 -0 -0 -0 -0 -0 -0 -0 -0 -0 -0 -0 -0 -0 -0 -0 -0 -0 -0 -0 -0 -0 -0 -0 -0 -0 -0 -0 -0 -0 -0 -0 -0 -9 -0 -0 -0 -0 -0 -0
-0 -0 -0 -0 -1 -0 -0 -0 -0 -0 -0 -0 -0 -0 -0 -0 -0 -0 -0 -0 -0 -0 -0 -0 -0 -0 -0 -0 -0 -0 -0 -0 -0 -0 -0 -0 -0 -0 -0 -0 -0 -0 -0
-0 -0 -0 -0 -0 -0 -0 -0 -0 -0 -0 -0 -0 -0 -0 -0 -0 -0 -0 -0 -0 -0 -0 -0 -0 -0 -0 -0 -0 -0 -0 -0 -0 -0 -0 -0 -0 -0 -0 -0 -0 -0 -0
-0 -0 -0 -0 -0 -0 -0 -0 -0 -0 -0 -0 -0 -0 -0 -0 -0 -0 -0 -0 -0 -0 -0 -0 -0 -0 -0 -0 -0 -0 -0 -0 -0 -0 -0 -0 -0 -0 -0 -0 -0 -0 -0
-0 -0 -0 -0 -0 -0 -0 -0 -0 -0 -0 -0 -0 -0 -0 -0 -0 -0 -0 -0 -0 -0 -0 -0 -0 -0 -0 -0 -0 -0 -0 -0 -0 -0 -0 -0 -0 -0 -0 -0 -0 -0 -0
-0 -0 -0 -0 -0 -0 -0 -0 -0 -0 -0 -0 -0 -0 -0 -0 -0 -0 -0 -0 -0 -0 -0 -0 -0 -0 -0 -0 -0 -0 -0 -0 -0 -0 -0 -0 -0 -0 -0 -0 -0 -0 -0
-0 -0 -0 -0 -0 -0 -0 -0 -0 -0 -0 -0 -0 -0 -0 -0 -0 -0 -0 -0 -0 -0 -0 -0 -0 -0 -0 -0 -0 -0 -0 -0 -0 -0 -0 -0 -0 -0 -0 -0 -0 -0 -0
-0 -0 -0 -0 -0 -0 -0 -0 -0 -0 -0 -0 -0 -0 -0 -0 -0 -0 -0 -0 -0 -0 -0 -0 -0 -0 -0 -0 -0 -0 -0 -0 -0 -0 -0 -0 -0 -0 -0 -0 -0 -0 -0
-0 -0 -0 -0 -0 -0 -0 -0 -0 -0 -0 -0 -0 -0 -0 -0 -0 -0 -0 -0 -0 -0 -0 -0 -0 -0 -0 -0 -0 -0 -0 -0 -0 -0 -0 -0 -0 -0 -0 -0 -0 -0 -0
-0 -0 -0 -0 -0 -0 -0 -0 -0 -0 -0 -0 -0 -0 -0 -0 -0 -0 -0 -0 -0 -0 -0 -0 -0 -0 -0 -0 -0 -0 -0 -0 -0 -0 -0 -0 -0 -0 -0 -0 -0 -0 -0
-0 -0 -0 -0 -0 -0 -0 -0 -0 -0 -0 -0 -0 -0 -0 -0 -0 -0 -0 -0 -0 -0 -0 -0 -0 -0 -0 -0 -0 -0 -0 -0 -0 -0 -0 -0 -0 -0 -0 -0 -0 -0 -0
-0 -0 -0 -0 -0 -0 -0 -0 -0 -0 -0 -0 -0 -0 -0 -0 -0 -0 -0 -0 -0 -0 -0 -0 -0 -0 -0 -0 -0 -0 -0 -0 -0 -0 -0 -0 -0 -0 -0 -0 -0 -0 -0
-0 -0 -0 -0 -0 -0 -0 -0 -0 -0 -0 -0 -0 -0 -0 -0 -0 -0 -0 -0 -0 -0 -0 -0 -0 -0 -0 -0 -0 -0 -0 -0 -0 -0 -0 -0 -0 -0 -0 -0 -0 -0 -0
-0 -0 -0 -0 -0 -0 -0 -0 -0 -0 -0 -0 -0 -0 -0 -0 -0 -0 -0 -0 -0 -0 -0 -0 -0 -0 -0 -0 -0 -0 -0 -0 -0 -0 -0 -0 -0 -0 -0 -0 -0 -0 -0
-0 -0 -0 -0 -0 -0 -0 -0 -0 -0 -0 -0 -0 -0 -0 -0 -0 -0 -0 -0 -0 -0 -0 -0 -0 -0 -0 -0 -0 -0 -0 -0 -0 -0 -0 -0 -0 -0 -0 -0 -0 -0 -0
-0 -0 -0 -0 -0 -0 -0 -0 -0 -0 -0 -0 -0 -0 -0 -0 -0 -0 -0 -0 -0 -0 -0 -0 -0 -0 -0 -0 -0 -0 -0 -0 -0 -0 -0 -0 -0 -0 -0 -0 -0 -0 -0
-0 -0 -0 -0 -0 -0 -0 -0 -0 -0 -0 -0 -0 -0 -0 -0 -0 -0 -0 -0 -0 -0 -0 -0 -0 -0 -0 -0 -0 -0 -0 -0 -0 -0 -0 -0 -0 -0 -0 -0 -0 -0 -0
-0 -0 -0 -0 -0 -0 -0 -0 -0 -0 -0 -0 -0 -0 -0 -0 -0 -0 -0 -0 -0 -0 -0 -0 -0 -0 -0 -0 -0 -0 -0 -0 -0 -0 -0 -0 -0 -0 -0 -0 -0 -0 -0
-0 -0 -0 -0 -0 -0 -0 -0 -0 -0 -0 -0 -0 -0 -0 -0 -0 -0 -0 -0 -0 -0 -0 -0 -0 -0 -0 -0 -0 -0 -0 -0 -0 -0 -0 -0 -0 -0 -0 -0 -0 -0 -0
Wind_Speed
4 5 10 11 6 6 2 4 8 11 8 5 9 8 9 12 11 12 12 14 14 14 15 15 14 14 16 14 16 18 17 14 15 13 17 18 19 17 16 20 20 14 20
7 6 11 10 10 9 5 6 4 6 7 7 9 10 10 10 11 10 11 12 13 14 15 15 14 13 14 14 15 17 18 15 16 15 15 16 15 22 20 18 18 15 16
7 6 8 12 11 8 7 5 7 7 5 7 7 8 9 9 9 12 11 12 13 13 14 14 14 13 12 12 15 16 16 16 18 17 18 8 8 17 18 19 18 17 16
7 5 6 12 11 10 8 3 6 6 5 6 8 7 7 8 9 10 10 11 12 13 13 14 14 12 11 15 14 15 14 14 17 19 8 8 9 15 13 13 15 15 19
6 6 6 12 10 8 9 5 4 5 4 5 4 6 7 7 8 8 10 10 11 11 12 12 13 11 10 14 13 15 12 13 15 11 8 8 6 11 14 12 13 12 15
7 7 9 12 12 10 7 7 4 5 5 3 4 6 6 7 7 8 9 9 10 10 11 11 12 11 10 11 12 13 12 13 12 7 7 9 8 13 15 16 15 12 13
7 6 6 11 11 11 9 8 5 5 3 4 4 3 3 4 6 7 8 9 10 9 9 10 10 10 9 9 10 11 11 11 6 6 6 7 7 12 13 13 12 16 13
8 7 6 12 12 12 9 9 7 5 6 3 3 2 2 4 4 7 8 9 9 8 9 8 7 8 9 10 10 10 10 8 6 6 6 5 8 11 11 11 12 11 13
6 6 5 4 8 12 10 9 8 6 4 4 3 1 2 3 3 4 6 8 7 7 7 7 7 7 7 8 8 9 9 8 5 4 5 4 11 9 10 10 10 11 9
6 6 6 4 5 4 3 9 8 7 5 4 3 2 1 1 3 7 7 7 7 6 6 6 6 6 7 9 9 9 7 7 4 4 3 4 9 10 9 9 8 9 8
3 5 5 6 5 5 4 4 7 7 6 5 4 4 3 2 3 5 6 6 6 5 5 5 6 7 9 9 9 9 9 3 3 3 2 8 8 9 8 8 6 7 7
7 6 6 6 6 5 3 4 2 1 1 1 1 0 1 1 2 4 6 7 7 8 8 8 8 9 7 3 4 7 3 4 3 3 3 9 9 7 7 7 7 7 6
8 4 7 7 6 6 4 3 1 1 1 1 3 2 1 1 2 2 2 3 3 6 3 5 5 3 5 4 4 4 4 4 2 3 5 10 11 9 8 7 6 7 7
8 10 7 7 6 6 3 4 4 3 3 3 4 4 2 2 3 3 2 3 3 2 4 3 3 4 5 5 5 6 5 4 3 3 5 10 11 11 11 9 8 8 8
10 9 9 7 7 6 6 4 4 4 4 4 4 4 3 3 3 2 3 3 3 2 2 3 3 4 5 5 5 5 6 6 6 3 3 11 11 11 12 11 10 9 9
12 11 10 9 9 6 7 6 5 4 5 4 4 5 5 4 4 3 3 3 3 2 3 3 3 4 4 4 6 6 6 6 6 6 4 4 12 12 13 13 12 11 11
11 11 11 11 9 9 9 7 5 5 5 4 5 6 6 5 5 4 3 3 3 2 3 3 3 3 4 4 6 6 5 6 5 6 5 4 5 11 12 13 13 14 13
10 11 10 10 10 10 9 7 5 5 5 5 4 4 6 6 6 5 4 4 3 2 2 2 2 3 4 4 5 6 5 5 6 6 5 4 4 3 7 11 13 14 15
13 11 10 9 10 12 8 5 5 6 5 5 4 4 6 6 6 5 4 4 3 2 2 2 2 2 3 4 5 6 5 4 4 4 6 4 5 4 3 8 12 13 14
11 11 12 10 10 9 5 3 2 2 4 3 5 5 6 5 6 5 4 5 3 3 3 2 2 1 3 4 5 7 5 4 2 2 3 3 3 3 3 4 4 5 12
8 9 11 11 9 8 3 3 2 4 3 4 5 7 7 6 6 6 4 4 4 4 4 3 1 1 3 2 4 4 3 3 2 2 3 2 3 2 2 3 3 3 5
14 14 11 12 10 10 7 3 4 4 4 3 4 6 7 7 7 6 6 6 6 4 5 4 4 1 2 1 1 1 5 6 4 3 2 3 2 2 2 2 4 5 5
13 14 14 14 13 12 9 5 3 3 1 0 3 4 6 7 7 7 7 6 6 4 5 4 5 5 2 1 3 3 2 2 4 4 4 2 3 3 5 4 6 5 6
16 12 14 12 13 12 12 9 8 8 6 5 4 4 4 7 7 7 7 6 6 4 6 5 4 4 4 4 1 3 1 3 1 5 4 4 4 3 6 4 5 6 6
12 13 13 13 12 12 14 13 10 7 6 3 2 4 4 4 6 6 7 6 6 5 5 6 5 6 4 3 4 2 1 0 1 3 6 4 3 4 4 5 5 5 6
8 10 10 13 12 11 13 12 14 13 8 5 5 5 5 4 4 6 6 6 6 6 6 5 6 7 6 5 4 4 4 3 3 4 4 5 5 4 3 4 5 4 5
Wind_Direction
227 203 157 155 169 141 114 137 63 65 79 69 76 78 65 55 58 54 59 55 50 48 45 47 49 44 52 43 48 52 51 50 47 38 26 26 34 55 47 47 45 44 41
150 190 160 160 166 152 101 129 89 95 94 70 66 57 69 65 56 53 57 55 53 50 45 44 53 48 54 43 50 55 61 60 55 43 24 17 38 53 48 42 42 34 42
148 176 167 165 163 149 129 129 112 103 102 103 77 69 69 57 64 56 47 50 59 49 50 46 52 61 57 52 51 54 58 55 45 34 25 10 0 40 42 41 41 43 48
153 146 139 172 136 165 161 119 137 117 99 85 75 78 76 63 58 56 54 51 52 53 48 47 51 59 51 49 48 59 59 49 39 33 17 15 14 43 44 40 44 37 40
140 153 177 167 156 157 162 164 150 131 98 97 81 66 59 55 56 70 55 54 45 45 54 51 55 62 56 49 48 51 57 51 38 27 13 358 7 43 50 61 53 38 41
150 157 193 169 159 162 170 165 146 137 145 123 77 51 65 52 37 54 55 42 47 45 42 49 51 56 54 49 44 49 49 49 36 21 11 2 342 39 44 47 63 53 43
162 168 203 171 166 168 175 170 177 158 123 117 72 62 76 54 55 41 42 37 39 43 43 42 48 51 55 48 43 46 45 49 45 20 9 355 336 34 35 34 35 45 51
163 178 186 183 180 169 177 179 180 196 161 144 132 103 56 40 42 43 40 32 26 29 36 40 39 42 44 43 40 41 44 53 36 22 359 346 357 39 41 31 40 28 36
165 164 184 183 182 178 180 186 188 187 185 190 166 94 53 26 34 22 19 17 15 16 22 25 21 31 28 23 19 19 40 40 39 7 352 343 0 33 40 37 18 40 29
173 177 181 170 161 157 181 188 195 199 198 207 217 187 253 18 349 355 8 339 10 14 17 19 18 16 6 8 3 2 14 26 18 347 341 317 1 3 28 26 27 5 21
200 197 181 175 175 165 169 213 199 204 210 219 237 256 17 49 358 338 305 323 340 358 359 348 350 349 0 353 353 352 10 4 353 327 317 314 342 356 0 2 6 1 359
198 205 195 187 186 174 175 183 148 191 72 73 98 148 67 359 306 302 290 303 330 333 351 340 346 348 360 348 330 342 343 324 312 294 291 305 311 327 343 344 338 335 340
199 193 194 194 195 181 186 172 155 159 182 253 241 225 236 294 318 328 327 328 330 326 337 339 339 349 342 334 329 325 323 325 302 295 297 297 297 303 313 316 317 317 316
187 201 196 193 187 197 183 178 185 187 199 219 230 218 200 258 290 291 296 301 303 308 310 315 317 314 317 321 320 314 307 306 299 297 293 299 293 297 296 299 303 302 305
198 202 203 183 191 192 189 187 193 209 210 218 225 228 196 226 250 260 264 268 267 275 268 292 303 307 311 315 311 303 310 303 296 285 276 291 294 294 291 292 291 296 301
202 201 195 195 195 180 192 194 204 199 214 214 226 228 222 217 226 235 252 254 266 247 272 275 283 302 299 308 310 304 289 286 283 282 274 282 290 290 285 284 289 292 293
201 200 192 196 187 187 199 201 203 203 198 215 223 224 226 215 221 231 247 263 260 260 269 277 295 303 301 308 289 284 274 268 265 269 266 253 275 285 288 286 288 290 289
191 192 193 196 188 194 197 197 200 200 202 218 222 216 223 224 217 220 234 248 249 257 271 306 301 303 290 288 289 287 280 274 277 276 273 268 259 260 286 291 290 290 292
195 193 193 184 184 194 198 191 198 205 207 220 221 220 225 225 220 212 227 250 240 238 251 246 284 218 290 302 298 288 281 281 284 298 300 314 293 286 279 288 288 292 295
194 193 197 190 190 184 164 144 167 210 233 221 225 222 222 221 222 213 231 244 220 220 249 240 242 265 250 279 293 294 294 300 321 281 313 337 331 313 300 283 292 292 293
190 187 191 177 182 160 144 158 192 211 201 219 215 222 217 218 222 214 224 235 213 215 220 207 213 291 308 334 330 326 333 351 6 14 344 18 25 358 314 304 286 276 289
200 200 191 195 177 187 184 166 165 161 206 196 200 217 216 216 217 213 214 226 217 219 227 206 181 192 261 319 86 66 353 334 349 28 0 9 93 329 5 300 287 292 289
200 194 196 195 188 189 177 124 101 81 59 164 228 237 220 212 215 210 214 215 220 200 229 213 184 181 216 281 213 150 20 289 325 328 343 318 306 354 318 316 301 304 286
207 196 197 190 187 186 171 180 173 190 199 206 195 197 220 211 219 216 217 216 219 202 218 215 189 189 155 227 295 217 185 148 160 322 314 297 328 293 290 296 295 291 286
193 190 191 187 187 182 182 189 191 201 208 165 188 217 221 224 222 218 213 214 221 210 218 203 192 192 189 177 186 161 179 177 170 208 283 300 298 255 260 265 275 283 292
181 181 180 181 191 179 180 188 191 201 196 192 209 219 225 226 230 226 220 215 218 216 212 207 202 197 196 203 189 187 181 176 196 194 250 285 278 285 256 264 268 281 284